Regional Weather Roundup
Issued by NWS Bismarck, ND

Home | Current Version | Previous Version | Text Only | Print | Product List | Glossary On
Versions: 1 2 3 4 5 6 7 8 9 10 11 12 13 14 15 16 17 18 19 20 21 22 23 24 25 26 27 28 29 30 31 32 33 34 35 36 37 38 39 40 41 42 43 44 45 46 47 48 49 50
000
ASUS43 KBIS 220210
RWRBIS

NWR BROADCAST TEXT
NATIONAL WEATHER SERVICE BISMARCK ND
900 PM CDT SAT APR 21 2018

NOTE: "FAIR" INDICATES FEW OR NO CLOUDS BELOW 12,000 FEET WITH NO
SIGNIFICANT WEATHER AND/OR OBSTRUCTIONS TO VISIBILITY.


CITY           SKY/WX    TMP DP  RH WIND       PRES   REMARKS
WILLISTON      MOCLDY    61  39  44 S14       29.96R
MINOT          CLEAR     54  38  54 SE15      30.04F
MINOT AFB      CLEAR     53  39  58 S16G23    30.03S
BISMARCK       CLEAR     50  36  58 S12       30.16S
DICKINSON      CLEAR     50  37  61 S15       30.04R
GARRISON         N/A     46  36  68 S10       30.08S
HETTINGER ARPT CLEAR     47  36  65 S16       30.10S
JAMESTOWN      CLEAR     46  36  68 S9        30.21R
CARRINGTON     CLOUDY    48  39  71 S13       30.21S
HAZEN          FAIR      52  37  58 S15       30.11R
LINTON           N/A    N/A N/A N/A S10       30.21S
MANDAN         FAIR      48  37  66 S18       30.15S
OAKES            N/A     46  36  66 S12       30.26R
RUGBY          FAIR      52  39  62 S9        30.11R
STANLEY          N/A     50  39  66 S21G28    30.02F HAZE
TIOGA          FAIR      52  41  66 S20       30.01R
WATFORD CITY   FAIR      57  39  51 S18G24    29.99R
$$

CITY           SKY/WX    TMP DP  RH WIND       PRES   REMARKS
GRAND FORKS    FAIR      50  46  86 SE7       30.23S
GRAND FORKS AF FAIR      49  43  78 SE8       30.22F
DEVILS LAKE    FAIR      50  37  61 S13       30.18S
FARGO          FAIR      54  43  66 SE10      30.25S
CANDO          FAIR      48  39  71 S13       30.17R
CAVALIER         N/A     54  43  66 SE8       30.19S
GRAFTON        FAIR      50  45  81 SE10      30.24S
GWINNER          N/A     46  41  81 S8        30.26R
LANGDON        FAIR      48  45  87 S13       30.18S
ROLLA          FAIR      50  41  71 S14       30.12S
WALHALLA       FAIR      54  41  62 S9        30.18S
$$

CITY           SKY/WX    TMP DP  RH WIND       PRES   REMARKS
ABERDEEN       PTCLDY    44  33  65 S8        30.27R
MOBRIDGE       MOCLDY    47  36  65 S9        30.19R
BUFFALO          N/A     48  36  63 S18       30.00R
RAPID CITY     CLEAR     44  36  73 S16       30.12S
GLASGOW        PTCLDY    62  31  31 NW33G41   29.89R
SIDNEY         PTCLDY    61  39  44 S13       29.95R
WOLF POINT     PTCLDY    68  37  32 S10       29.86R
MILES CITY     PTCLDY    63  41  44 SE12      29.93R
BAKER          PTCLDY    54  40  59 S15       30.02R
$$

CITY           SKY/WX    TMP DP  RH WIND       PRES   REMARKS
BILLINGS       PTCLDY    67  32  27 SW8       29.93R
GREAT FALLS    CLEAR     53  21  28 W25G32    30.00S
REGINA         LGT RAIN  59  45  58 S21G28    29.78F
ESTEVAN        MOCLDY    57  39  51 SE15G22   29.93R
$$





USA.gov is the U.S. government's official web portal to all federal, state and local government web resources and services.